451  
ASUS43 KIWX 182010  
RWRIWX  
 
KIWX WEATHER ROUNDUP  
NATIONAL WEATHER SERVICE NORTHERN INDIANA  
400 PM EDT WED SEP 18 2019  
 
NOTE: "FAIR" INDICATES FEW OR NO CLOUDS BELOW 12,000 FEET WITH NO  
SIGNIFICANT WEATHER AND/OR S TO VISIBILITY
.  
 
* THESE STATIONS ARE NOT UNDER NWS QUALITY CONTROL. THEY ALSO MAY NOT  
REPORT WEATHER SUCH AS PRECIPITATION OR FOG.
 
 
INZ001>027-182100-  
NORTHERN INDIANA  
 
CITY SKY/WX TMP DP RH WIND PRES REMARKS
 
GARY* PTSUNNY 81 59 47 SE3 30.13F  
VALPARAISO FAIR 82 59 45 S5 30.12F  
MICHIGAN CITY* FAIR 81 68 65 SE5 30.12F  
LAPORTE* FAIR 81 60 49 S7 30.14F  
KNOX* FAIR 79 59 50 E3 30.12F  
SOUTH BEND FAIR 82 59 45 SE6 30.14F  
ELKHART* FAIR 82 55 39 SE7 30.14F  
GOSHEN FAIR 82 55 39 SE6 30.14F  
MONTICELLO* FAIR 83 58 42 E7 30.11F  
LOGANSPORT* FAIR 79 61 53 NE3 30.12F  
ROCHESTER* FAIR 82 59 44 E7 30.13F  
WARSAW* FAIR 81 55 41 E7 30.14F  
KENDALLVILLE* FAIR 80 53 39 SE7 30.16F  
AUBURN* FAIR 81 57 44 E5 30.17F  
FORT WAYNE FAIR 81 57 43 E8 30.14F  
PERU/GRISSOM FAIR 82 60 47 NE7 30.11F  
 

 
INZ028>050-182100-  
CENTRAL INDIANA  
 
CITY SKY/WX TMP DP RH WIND PRES REMARKS
 
LAFAYETTE FAIR 84 59 42 E6 30.10F  
KOKOMO* FAIR 83 60 45 E10 30.13F  
MUNCIE* FAIR 86 58 38 E10 30.12F  
INDIANAPOLIS FAIR 85 56 37 E8 30.09F  
 

 
MIZ043>046-050>051-056>058-064>065-071>073-077>080-182100-  
SOUTHWEST LOWER MICHIGAN  
 
CITY SKY/WX TMP DP RH WIND PRES REMARKS
 
BATTLE CREEK FAIR 80 56 43 SE8 30.18F  
BENTON HARBOR FAIR 82 60 47 S8 30.13F  
COLDWATER* FAIR 78 47 33 E6 30.17F  
HILLSDALE* FAIR 78 53 41 E5 30.18F  
HOLLAND FAIR 80 63 55 S8 30.15F  
GRAND RAPIDS PTSUNNY 80 58 46 SE7 30.16F  
KALAMAZOO FAIR 81 51 35 VRB3 30.16F  
STURGIS* FAIR 80 52 37 S8 30.16F  
THREE RIVERS* FAIR 81 50 34 S8 30.16F  
 

 
OHZ001>008-015>018-024>025-182100-  
NORTHWEST OHIO  
 
CITY SKY/WX TMP DP RH WIND PRES REMARKS
 
WAUSEON* FAIR 81 57 44 E8 30.17F  
DEFIANCE FAIR 81 54 39 E6 30.16F  
FINDLAY FAIR 84 52 33 NE9 30.15F  
OTTAWA* FAIR 81 54 39 E10 30.17F  
TOLEDO EXPRESS FAIR 82 56 40 E8 30.17F  
LIMA FAIR 83 54 36 E7 30.15F  
 

 
AND FOR LAKE MICHIGAN COASTAL AND OPEN LAKE BUOY OBSERVATIONS  
 
STATION/POSITION TEMP WIND PRES VSBY WAVE
 
AIR SEA DIR/SP/G HT/PER  
(F) (DEG/KT/KT) (MB) (MI) (FT/S)  
CALUMET HARBOR 75 70/ 8/ 9 1019.3F  
MICHIGAN CITY 72 30/ 9/ 10 N/A  
BURNS HARBOR 73 60/ 4/ 5 1020.3F  
SAINT JOSEPH 73 20/ 5/ 7 1021.0  
SOUTH LAKE BUOY 68 68 140/ 8/ 12 1020.4F 2/ 4  
4 MI NW BRIDGMAN 73 68 350/ 4/ 4 1019.9 0  
MICHIGAN CITY 71 70 20/ 6/ 6 N/A 0  
 

 

 
 
 
CLICK HERE TO GO TO PREVIOUS BULLETINS.

The Nexlab IN Page
The Nexlab OH Page
The Nexlab MI Page Main Text Page